sat.trackr.live / text

‹ back to catalog

GEOSCAN 2 (RS92S2)

NORAD 64890 · 2025-155Q

PAYLOAD ACTIVE UNKNOWN

§ Identity

Operator
Country
CIS
Launch date
2025-07-25
Launch site
VOSTO
Launch vehicle
Mass (kg)
RCS (m²)

Purposes: comms

External: N2YO · Heavens-Above · Gunter

§ Orbital elements

Epoch: 2026-05-25T04:01:43.127328Z

Period
94.09 min
Inclination
97.4537°
Eccentricity
0.0005118
Mean motion
15.30479400 rev/d
Perigee alt
470.9 km
Apogee alt
477.9 km
Semi-major
6,852.5 km
B*
3.4771e-4
RAAN
113.9131°
Arg perigee
234.7723°
Mean anomaly
125.3039°
Rev number
7,726

§ Raw data

GEOSCAN 2 (RS92S2)1 64890U 25155Q   26145.16786027  .00010177  00000+0  34771-3 0  99902 64890  97.4537 113.9131 0005118 234.7723 125.3039 15.30479400 77264

JSON: /api/v1/satellites/64890 · /tle

For live sub-satellite position, see the globe view (requires WebGL).

§ Visibility from observer

Set your observer location to see the next 7 days of passes ≥ 10°. The values pass through the URL so the page stays shareable.

No JS? Fill the form by hand. The geolocation button needs JavaScript.

§ Radio — SatNOGS DB

ModeDescriptionDownlinkUplink
GFSK Mode U - GFSK9k6 - AX.25 Beacon and Ham Payload (Geoscan framing) 436.160 MHz

1 transmitter · refreshed weekly from db.satnogs.org